STARLINK-30278, 57668

Orbit data source: Space-Track

STARLINK-30278, 57668 is a payload satellite owned by SpaceX/Seattle (US) in LEO that was launched on Tue, 22 Aug 2023 UTC via an FALCON 9 launch vehicle from the Air Force Western Test Range (AFWTR). Payload-class satellites include a variety of spacecraft equipped with specific instruments for various scientific and technological missions. These include communications satellites like Starlink; space stations such as the ISS; scientific satellites like the Hubble; Earth observation satellites from companies like Planet Labs, Umbra, and HawkEye 360; GPS; miniature CubeSats for education and research; and military/defense satellites.

Loading next visibility...
Identifier
57668, 2023-124F
Orbit
LEO
Country
Flag of USUS
Related business
Manufacturer
SpaceX/Seattle
Mission
Operational Commercial Communications
Bus & Motor
STARLINK V2M, Unknown motor
Mass
730 kg wet, ~700 kg dry
Launch date (UTC)
2023-08-22 (3 years ago)
Launch vehicle
FALCON 9
Launch site
Air Force Western Test Range (AFWTR)
Object type
Payload
Rocket body
Debris
Shape & HBR
Box + 2 Pan, 17.7 m
Radar Cross Section
33.884 m², Large (>1 m²)

Expand to show TLE details & history
Last TLE update: 3 days ago

TLE from 3 days ago
0 STARLINK-30278
1 57668U 23124F   26170.52484189  .00000390  00000-0  25307-4 0  9994
2 57668  53.1607  94.0275 0001328  81.5964 278.5187 15.30196528159159
Epoch: 2026-06-19T12:35Z
TLE epoch observation values (Epoch: 2026-06-19T12:35:46.339Z)
Latitude
-0.00004°
Longitude
-2.66818°
Altitude
475.991 km
Speed
7.629 km/s
True Right ascension
06h 16m 06s
True Declination
0° 00' 00"
Sunlit
Object was in daylight at epoch
Visualization orbit readout
Latitude
Unknown
Longitude
Unknown
Altitude
Unknown
Speed
Unknown
Apparent Right ascension
Unknown
Apparent Declination
Unknown
Sunlit
N/A
Visualization observer readout
Local Sidereal Time
21:32:53
Azimuth
Unknown
Elevation
Unknown
Doppler factor
Unknown
Orbital elements
Apogee altitude
476.392 km
Perigee altitude
474.572 km
Semi-major axis
6,853.619 km
Eccentricity
0.00013
Inclination
53.1607°
RAAN
94.0275°
Arg. of periapsis
81.5964°
True anomaly
278.50365°
Mean anomaly
278.5187°
Eccentric anomaly
278.51117°
Mean motion
3.82528 °/min
Orbital period
94.11 mins
BSTAR
0.000025307
Loading maneuver chart data...
Computing Atmospheric mass density...
Loading historical data...
Loading historical data...
Loading historical data...
Loading historical data...
Loading historical data...
Loading historical data...
Loading historical data...

Documentation

Showing up to 5 results
|